Preview of NWS' New Version of Forecast
This preview is not operational and should not be used for support decisions.

Regional Weather Roundup (RWR)

Issued by National Weather Service (NWS)

                            
000
ASUS43 KTOP 210859
RWRKS 

WEATHER ROUNDUP FOR KANSAS
NATIONAL WEATHER SERVICE GOODLAND KS
400 AM CDT WED AUG 21 2019

NOTE:  "FAIR" INDICATES FEW OR NO CLOUDS BELOW 12,000 FEET WITH NO
SIGNIFICANT WEATHER AND/OR OBSTRUCTIONS TO VISIBILITY.

KSZ001>006-013>018-027>032-041>047-211000-
NORTHWEST KANSAS
  
CITY           SKY/WX    TMP DP  RH WIND       PRES   REMARKS
GOODLAND       PTCLDY    71  56  58 S17       30.02F                  
HAYS           CLEAR     78  61  55 S21G30    29.80F                  
HILL CITY      CLEAR     84  56  38 SW9G21    29.94R                  
RUSSELL        CLEAR     81  60  48 W20G35    29.96R                  
$$

KSZ061>065-074>080-084>089-211000-
SOUTHWEST KANSAS
  
CITY           SKY/WX    TMP DP  RH WIND       PRES   REMARKS
DODGE CITY     MOCLDY    76  62  62 E9        30.03R                  
GARDEN CITY    CLEAR     70  61  73 E13       30.02F                  
GREAT BEND     LGT RAIN  81  57  43 SW35G44   29.96R                  
LIBERAL        CLEAR     82  60  47 S12       30.01S                  
$$

KSZ066>073-081>083-090>101-211000-
SOUTHEAST KANSAS
  
CITY           SKY/WX    TMP DP  RH WIND       PRES   REMARKS
CHANUTE        CLEAR     82  74  76 S10       29.93F                  
COFFEYVILLE    CLEAR     79  74  84 S6        29.93F                  
HUTCHINSON     CLEAR     81  67  62 CALM      29.95R                  
MEDICINE LODGE   N/A     83  62  49 S9G17     29.92F                  
NEWTON           N/A     77  71  82 SW9       29.97R                  
PARSONS        CLEAR     80  76  87 S9        29.95F                  
WICHITA INTL   MOCLDY    79  71  76 S8        29.95R                  
WICHITA JABRA  CLEAR     78  71  79 S6        29.96R                  
WICHITA MCCONL CLEAR     78  68  70 SE8       29.96R                  
WINFIELD       CLEAR     78  71  79 S6        29.96R                  
$$

KSZ007>012-019>026-033>040-048>060-102>105-211000-
NORTHEAST KANSAS
  
CITY           SKY/WX    TMP DP  RH WIND       PRES   REMARKS
CONCORDIA      MOCLDY    78  75  90 NE12G22   29.99R THUNDER          
EMPORIA        LGT RAIN  78  73  84 SW7       29.95F                  
LAWRENCE       MOCLDY    80  75  84 SE6       29.91R                  
MANHATTAN      CLEAR     79  72  79 CALM      29.91R                  
OLATHE IND     MOCLDY    78  74  87 S5        29.96R                  
OLATHE EXE     CLOUDY    77  75  93 S5        29.94R                  
SALINA         MOCLDY    78  73  84 S6        29.94R                  
TOPEKA BILLARD PTCLDY    81  70  69 S3        29.90S                  
TOPEKA FORBES  CLEAR     80  68  66 S10       29.91R                  
$$